CZ-6A DEB

Satellite information

Favourite Embed

Satellite Type and Status

DEBRISIN ORBIT

Key statistics

Satellite CZ-6A DEB at a glance.

Uptime

969

Days in orbit

Revolutions

≈ 14.7

Per day

Orbit

SSO

Sun Synchronous Orbit

Inclination

98.7

Latest

Satellite identification and parameters

Extended collection of information and parameters for CZ-6A DEB.

Object identification

Identified? True

Debris? True

Object name: CZ-6A DEB

International designator: 2022-151PJ

Object number (NORAD): 54632

Object ID (CCSDS): 54632

Country: PEOPLES REPUBLIC OF CHINA (PRC)

Current information (Y/N): Y

RCS size: SMALL

Orbital parameters

Period: 98.239 minutes

Inclination: 98.6572 deg

SMA: 7052.609 km

Apoapsis: 722.52 km

Periapsis: 626.428 km

RAAN: 230.8733 deg

Eccentricy: 0.0068125

Argument of periapsis: 286.3526 deg

Mean anomaly: 73.0192 deg

Mean motion: 14.6581126 rev/day

Mean motion (dot): 0.00011409 rev/day2

B* drag term: 0.0020278 1/REarth

Two-line elements (TLE)

Creation date: July 6, 2025, 10:26 p.m.

Reference frame: TEME

Reference center: EARTH

Epoch: July 6, 2025, 4:13 p.m. UTC

TLE line 0: 0 CZ-6A DEB

TLE line 1: 1 54632U 22151PJ 25187.67614611 .00011409 00000-0 20278-2 0 9992

TLE line 2: 2 54632 98.6572 230.8733 0068125 286.3526 73.0192 14.65811260138490

Live tracking on map

Real-time ground track for satellite CZ-6A DEB.

In-orbit conjunctions

A list of the most updated potential collisions computed for object CZ-6A DEB.

Target Orbit TCA Probability of collision Miss distance Type
CZ-2C R/B LEO 2025-01-10 09:50:14 0.0008238459 60.0 (m) ROCKET BODY
COSMOS 2441 SSO 2024-12-10 17:54:12 0.0003245799 392.0 (m) PAYLOAD
IRIDIUM 63 LEO 2024-11-28 08:44:46 0.0003215233 433.0 (m) PAYLOAD
IRIDIUM 33 DEB LEO 2024-10-15 12:07:44 0.0001143508 188.0 (m) DEBRIS
COSMOS 2251 DEB LEO 2024-08-23 16:29:29 0.0001977403 207.0 (m) DEBRIS

Associated space launch

Chinese satellite reported for atmospheric/ocean/environmental/spatial parameter research purposes, details TBD.

CZ-6A DEB was lifted into orbit during the mission ‘Long March 6A | Yunhai 3’, on board a Long March 6A space rocket.

The launch took place on Nov. 11, 2022, 10:52 p.m. from Launch Complex 9A.

For more information about the launch, click the button.

Launch to space Long March 6A | Yunhai 3
Long March 6A | Yunhai 3

Agency: N/A

Status: Launch Successful

Launch date: Nov. 11, 2022, 10:52 p.m. UTC

Rocket: Long March 6A

Launch pad: Launch Complex 9A

Location: Taiyuan Satellite Launch Center, People's Republic of China

...

Latest news about this satellite

There are no fresh news available about this satellite. Check back as we update our databases every day.


Newsletter sign-up

Weekly statistics, charts and insights to help you stay on top of the space industry.